Presure
210 196 193 201 197 202 196 186 188 121 203 132 182 195 210 205 195 184 143 188 185 191 192 192 189 193 109 181 157 173 178 103 104 96 158 169 172 158
223 215 211 211 210 206 196 196 204 197 166 191 194 159 186 202 211 202 195 212 201 189 189 190 192 193 190 190 196 98 119 135 188 115 111 99 123 112
246 252 254 244 226 223 213 204 209 214 196 193 184 184 195 188 192 204 206 202 197 198 201 190 191 187 191 192 194 189 193 158 181 173 162 95 100 111
254 273 268 272 267 273 271 261 229 223 222 212 198 193 189 185 187 186 194 212 202 203 206 217 202 188 186 184 188 193 190 191 193 184 170 105 110 171
278 268 282 291 232 285 293 307 300 287 271 271 218 208 202 197 192 194 194 193 206 202 202 204 205 214 196 197 187 190 185 183 178 185 191 190 185 174
311 314 319 319 323 322 324 312 288 311 316 320 316 298 259 198 196 194 204 200 196 192 196 207 205 200 199 210 195 157 133 163 194 191 185 190 191 187
248 247 248 250 246 253 272 271 276 328 335 336 350 353 365 315 317 194 189 202 192 204 213 210 205 214 208 201 206 215 208 178 169 148 195 196 167 184
288 286 288 290 290 289 257 262 255 253 281 261 270 270 277 339 355 363 342 205 216 209 193 198 211 210 216 212 205 200 201 203 167 150 127 193 190 191
454 382 382 454 453 450 444 443 460 479 495 495 503 368 323 297 293 286 277 328 253 208 204 211 221 208 199 214 213 213 192 197 199 192 170 133 151 150
433 437 434 433 448 442 448 451 473 489 469 482 483 495 489 490 480 459 331 299 302 307 230 231 223 213 219 211 215 217 216 205 197 150 197 163 161 132
427 431 443 433 418 416 415 464 479 477 459 464 457 463 464 469 470 475 492 490 480 488 303 306 289 230 217 212 193 214 219 215 223 212 189 189 188 138
409 409 401 404 410 469 463 456 463 450 442 439 438 446 446 449 452 449 468 459 479 503 516 306 295 242 236 219 209 218 205 216 214 193 221 208 195 176
399 403 396 422 457 452 441 440 443 434 428 425 419 419 418 422 431 435 445 457 473 488 497 482 491 295 298 236 224 216 213 215 206 197 216 221 210 209
399 392 461 449 444 433 421 430 421 416 412 406 404 403 399 402 415 423 432 444 457 474 477 471 498 350 296 299 291 228 221 228 211 195 201 204 220 189
390 458 444 436 427 411 411 410 407 402 395 391 386 384 382 388 403 411 420 429 439 458 459 475 473 509 302 298 289 290 226 222 217 225 209 131 211 201
442 441 432 425 404 403 401 400 393 385 380 376 374 376 391 391 393 395 405 416 431 433 442 449 470 490 522 529 274 285 289 241 225 222 218 206 206 221
433 437 425 408 400 391 391 381 376 368 365 365 386 384 383 386 390 391 405 417 424 427 425 435 450 469 495 386 352 273 289 280 269 230 218 205 218 174
430 425 404 395 388 381 374 365 358 352 354 374 373 373 374 376 376 379 386 396 404 413 419 419 436 452 474 508 278 289 276 292 278 263 231 221 221 229
417 405 385 386 377 365 353 349 342 356 360 360 355 357 360 357 365 366 374 385 389 396 397 407 419 441 464 492 496 487 288 262 277 281 286 252 226 212
403 384 377 370 360 347 345 352 347 350 347 353 346 336 342 345 352 354 356 370 384 385 393 405 423 434 457 477 487 489 270 283 263 287 277 268 255 219
385 370 365 350 354 347 346 345 343 332 329 334 331 331 330 334 342 339 344 349 358 364 370 380 393 416 441 465 484 514 519 254 279 270 283 276 276 239
364 352 357 343 344 341 332 333 329 328 321 321 321 324 327 337 347 348 343 346 353 357 360 362 365 384 410 452 484 502 513 513 262 277 262 281 267 278
339 346 333 339 331 328 324 317 313 309 312 316 334 334 332 337 343 352 348 355 355 353 361 360 363 372 385 403 441 484 509 520 414 259 276 262 282 261
Wind_Speed
136 138 137 137 138 138 138 136 135 104 134 108 138 141 135 133 135 132 113 131 130 130 127 123 118 117 85 108 102 102 101 75 71 67 91 87 85 80
143 143 143 142 142 144 143 143 143 143 125 139 140 125 144 141 137 136 136 136 137 134 133 130 127 124 119 119 115 78 89 94 98 83 77 66 75 71
142 145 149 148 148 150 151 150 150 149 145 144 145 145 148 147 147 141 139 139 139 134 141 135 134 129 126 123 122 111 110 97 102 98 93 69 70 74
149 158 155 155 153 156 156 155 153 156 155 154 150 149 151 151 150 147 144 146 143 143 140 141 141 133 129 125 126 124 114 113 110 104 100 80 81 94
156 150 155 159 134 160 160 160 161 160 159 160 156 159 156 158 158 159 156 151 150 149 147 142 141 142 138 138 131 132 112 116 107 106 107 106 103 100
150 151 148 149 151 154 156 155 156 164 166 168 165 162 160 159 160 156 166 164 155 146 146 153 148 143 140 141 133 114 102 110 129 120 109 110 106 102
132 131 131 133 132 132 137 137 139 153 154 155 155 157 156 161 162 161 151 170 152 162 160 158 152 149 148 142 139 136 137 127 122 105 128 118 105 101
148 148 149 149 150 150 140 140 138 137 145 138 137 132 129 151 156 159 163 165 175 161 146 147 162 158 154 150 147 137 136 135 120 102 94 127 114 113
77 116 117 79 80 82 84 86 80 73 69 71 72 127 139 143 141 136 133 154 171 169 153 166 170 151 143 155 153 149 133 137 134 127 113 102 99 102
77 77 78 77 73 77 75 74 66 60 67 65 66 62 66 67 77 91 136 141 143 143 189 180 177 154 164 155 158 153 151 141 137 101 131 118 115 99
73 72 70 69 72 74 76 63 56 53 59 60 65 63 63 63 67 72 72 78 85 83 149 146 167 179 170 162 126 154 156 148 147 146 130 126 127 104
68 68 70 69 67 54 56 56 53 50 56 59 60 58 58 58 60 68 65 76 76 71 64 151 148 187 182 170 159 161 146 153 150 120 144 141 129 118
66 62 64 61 53 51 52 53 49 49 53 55 54 54 55 56 56 62 64 68 68 67 58 80 88 153 152 178 169 164 160 156 148 130 140 141 138 137
55 56 49 49 49 48 48 46 47 49 48 49 49 48 52 54 55 59 60 62 63 62 57 71 73 135 152 148 150 169 167 167 157 146 141 136 139 128
52 45 45 45 44 44 43 43 44 44 44 43 45 46 50 51 51 53 55 59 60 57 57 59 70 66 153 148 147 150 167 163 164 163 152 113 146 130
45 42 41 38 39 40 40 40 40 40 39 40 41 42 42 44 47 52 53 55 58 55 54 58 60 62 63 73 166 149 149 166 166 160 157 150 146 147
40 35 33 34 35 38 36 36 37 37 36 36 33 34 37 40 40 45 46 48 51 49 49 53 58 60 62 115 138 160 149 153 160 164 156 143 146 106
33 28 31 32 33 33 33 33 34 34 33 32 31 30 31 34 37 40 43 44 45 44 44 49 54 59 62 61 153 156 156 147 155 162 162 158 161 162
27 26 28 28 29 29 30 30 32 32 30 28 28 29 31 32 35 36 42 45 44 44 45 48 53 56 57 58 62 90 156 163 150 154 149 161 164 146
23 24 25 26 26 27 28 28 28 28 28 27 26 28 32 33 34 36 38 40 43 44 42 47 51 53 55 53 60 69 156 158 162 148 154 165 158 156
19 22 23 24 23 24 24 23 22 24 25 27 29 31 32 32 32 34 37 41 42 40 36 37 43 52 54 60 62 57 63 152 159 154 155 155 154 163
20 22 20 22 22 21 21 21 21 22 24 26 27 29 32 33 33 36 39 41 42 42 39 41 45 48 50 54 53 59 63 77 152 158 157 150 156 153
20 21 19 17 15 15 13 14 18 22 25 26 25 25 27 28 32 32 35 39 42 44 44 45 48 52 50 48 45 53 61 67 107 146 152 149 145 153
Wind_Direction
252 252 252 252 251 250 251 252 253 261 247 259 258 257 250 247 249 252 252 251 254 255 256 255 253 254 251 250 251 252 254 256 258 260 258 259 259 262
252 252 251 250 250 250 250 249 249 250 252 249 249 257 259 254 249 248 250 248 249 252 254 255 256 255 254 255 254 251 255 255 252 257 258 260 260 261
258 256 255 253 251 251 250 250 248 248 247 246 251 253 252 255 257 252 249 249 250 248 249 251 252 256 256 256 256 250 252 251 250 250 254 258 260 261
263 260 259 259 259 257 255 252 249 249 247 245 246 247 250 256 256 258 254 249 249 250 248 248 247 251 255 256 257 257 252 253 253 250 249 256 259 256
261 263 262 260 253 260 259 257 256 253 252 251 245 246 246 247 251 253 254 253 249 250 250 248 248 247 248 249 254 256 254 254 250 249 253 253 251 254
265 264 263 262 261 260 260 259 258 256 256 255 252 250 246 245 246 249 249 252 252 250 249 249 249 247 247 248 249 250 252 249 257 256 252 251 253 251
264 263 262 261 259 259 259 258 257 259 257 258 256 254 251 249 248 246 251 248 253 250 245 246 248 246 248 248 248 246 248 250 253 254 257 257 244 251
268 267 267 266 266 265 257 257 254 253 258 251 251 248 247 254 252 249 248 248 243 248 253 249 243 246 245 245 248 247 247 247 249 241 254 257 257 257
270 267 267 272 272 272 270 270 270 270 269 266 264 257 254 252 247 241 244 245 242 246 254 249 243 246 249 244 244 245 248 248 248 246 241 250 243 255
271 272 272 272 274 272 271 269 270 268 267 266 264 260 259 255 256 252 244 241 241 240 242 244 246 249 243 245 244 243 242 246 247 250 248 246 249 251
271 273 274 272 270 271 270 271 269 266 263 261 262 260 257 254 254 254 253 253 249 244 238 235 240 244 246 246 248 243 242 244 240 244 246 248 252 249
271 272 273 273 272 274 271 269 266 260 257 256 258 259 259 256 254 254 255 251 253 249 244 235 231 239 240 244 247 243 249 243 246 253 242 246 247 252
271 272 272 273 274 270 266 265 263 257 254 256 257 257 257 257 254 253 254 254 254 252 244 243 241 229 230 238 241 244 247 245 248 253 246 241 245 246
271 270 274 270 267 265 264 262 258 256 255 254 256 255 255 255 255 255 254 256 258 255 247 245 244 229 229 229 229 239 241 239 246 244 249 249 243 244
272 273 268 264 262 261 260 255 254 254 253 254 253 253 254 254 254 255 255 256 256 257 254 250 245 245 227 226 226 227 239 239 242 243 244 235 246 250
271 268 264 262 260 256 253 253 253 254 254 253 252 252 253 253 253 255 255 256 256 255 256 252 251 246 246 241 226 225 226 234 237 242 241 245 247 241
269 265 259 255 249 251 250 251 253 254 254 252 256 254 253 255 256 257 260 259 259 257 253 254 252 249 245 231 223 226 224 223 228 239 239 245 240 232
266 259 249 247 245 247 248 250 254 257 258 263 261 259 255 254 253 254 257 260 260 258 254 252 252 249 246 244 226 223 224 222 223 229 236 237 240 243
254 248 242 242 240 242 248 251 257 260 262 263 262 260 261 256 256 256 262 261 258 255 253 250 250 250 248 244 234 231 220 227 223 222 225 228 238 242
243 238 235 237 239 243 248 250 257 262 268 267 261 260 262 260 262 259 260 262 259 257 257 258 255 251 249 242 234 229 225 220 227 219 221 226 227 237
227 230 229 236 239 243 248 252 255 261 265 266 267 268 267 265 262 260 261 263 261 258 255 256 255 251 247 243 236 231 231 229 221 223 220 222 224 230
214 225 222 232 237 239 248 251 256 260 266 270 270 271 270 271 268 261 259 256 257 256 252 248 248 251 252 250 243 236 227 228 226 221 227 219 224 224
214 213 227 228 239 249 250 263 260 263 266 270 283 288 285 285 282 276 269 265 260 257 256 249 248 247 247 247 243 240 233 228 224 227 222 225 220 226